Zurück zum Katalog

STARLINK-34418

AktivKommunikationVLEO
NORAD 64461·PAYLOAD·🇺🇸 United States

Gestartet Jun 18, 2025 von Cape Canaveral Space Force Station

Loading…

Nächste Überflüge (nächste 24 Stunden)

TLE

AktuellSource: CelesTrak SupGP

Epoche: Sep 14, 2026, 21:16 UTC

1 64461C 25130Z   26257.88659722  .00030947  00000+0  91499-3 0  2575
2 64461  53.1567 287.6857 0001135  92.0153  95.1962 15.34353400    14

Verfolge STARLINK-34418 in Echtzeit mit AllMySat

Download on the App Store